This is the latest recevied weather packets stored in our database for station/object K9MWD. If no packets are shown the sender has not sent any weather packets the latest 10 day(s).
| Time | Temp. | Humidity | Pressure | Rain* | Wind** | Luminosity | Snow |
|---|---|---|---|---|---|---|---|
| 1787951475 | 38.33° C | 32% | 1015.2 hPa | 0 mm | - | 603 W/m² | - |
| 1787951171 | 37.22° C | 33% | 1015.2 hPa | 0 mm | - | 570 W/m² | - |
| 1787950867 | 38.33° C | 33% | 1015.3 hPa | 0 mm | - | 139 W/m² | - |
| 1787950561 | 39.44° C | 34% | 1015.6 hPa | 0 mm | - | 667 W/m² | - |
| 1787950258 | 38.33° C | 36% | 1015.4 hPa | 0 mm | - | 711 W/m² | - |
| 1787949954 | 38.33° C | 35% | 1015.5 hPa | 0 mm | - | 738 W/m² | - |
| 1787949654 | 38.89° C | 34% | 1015.7 hPa | 0 mm | - | 723 W/m² | - |
| 1787949349 | 38.33° C | 33% | 1015.8 hPa | 0 mm | - | 709 W/m² | - |
| 1787949043 | 38.33° C | 36% | 1016 hPa | 0 mm | - | 714 W/m² | - |
| 1787948739 | 38.33° C | 35% | 1016 hPa | 0 mm | - | 722 W/m² | - |
| 1787948434 | 37.22° C | 36% | 1016.1 hPa | 0 mm | - | 735 W/m² | - |
| 1787948129 | 37.78° C | 36% | 1016.1 hPa | 0 mm | - | 627 W/m² | - |
| 1787947829 | 37.78° C | 36% | 1016.3 hPa | 0 mm | - | 757 W/m² | - |
| 1787947527 | 38.33° C | 35% | 1016.3 hPa | 0 mm | - | 210 W/m² | - |
| 1787947223 | 37.78° C | 35% | 1016.3 hPa | 0 mm | - | 820 W/m² | - |
| 1787946922 | 37.78° C | 35% | 1016.2 hPa | 0 mm | - | 187 W/m² | - |
| 1787946629 | 38.33° C | 34% | 1016.3 hPa | 0 mm | - | 203 W/m² | - |
| 1787946316 | 38.33° C | 36% | 1016.5 hPa | 0 mm | - | 866 W/m² | - |
| 1787946016 | 38.33° C | 35% | 1016.6 hPa | 0 mm | - | 860 W/m² | - |
| 1787945715 | 37.22° C | 34% | 1016.7 hPa | 0 mm | - | 881 W/m² | - |
| 1787945410 | 37.78° C | 34% | 1016.8 hPa | 0 mm | - | 465 W/m² | - |
| 1787945106 | 38.33° C | 33% | 1016.7 hPa | 0 mm | - | 487 W/m² | - |
| 1787944802 | 37.78° C | 34% | 1016.7 hPa | 0 mm | - | 885 W/m² | - |
| 1787944498 | 37.78° C | 36% | 1016.7 hPa | 0 mm | - | 900 W/m² | - |
| 1787944193 | 37.22° C | 36% | 1016.6 hPa | 0 mm | - | 899 W/m² | - |
* Rain latest hour (hover to see other rain measurements)
** Current wind speed in m/s (hover to see current wind gust speed)